EHI
9 10 11 13 13 12 13 14 12 10 9 9 8 7 6 4 3 3 5 11 16 16 15 12 8 6 4 3 1 1 2 2 1 1 1 0 0 1 0 0 0 0 0
10 11 11 12 13 12 13 13 12 10 9 8 8 8 7 6 5 5 6 8 13 15 14 13 12 9 7 4 2 1 3 3 4 3 2 1 1 1 0 0 0 0 0
11 11 12 12 12 12 11 9 9 9 8 7 8 9 10 9 8 8 8 8 9 12 13 15 17 15 11 7 4 4 5 5 6 5 3 2 1 1 0 0 0 0 0
12 12 12 11 10 10 8 6 6 8 8 7 8 10 12 13 12 10 10 10 10 12 14 17 20 18 13 9 7 7 6 7 6 4 2 2 1 0 0 0 0 0 0
13 14 13 11 11 8 5 4 5 8 8 7 7 8 11 14 15 14 13 14 16 18 19 21 22 17 13 12 13 10 9 8 6 4 2 2 1 0 0 0 0 0 0
13 14 13 13 12 8 5 4 5 7 9 6 5 6 9 15 19 19 17 19 22 26 27 26 23 17 13 14 15 14 13 12 9 6 4 3 2 1 1 0 0 0 0
13 13 13 13 13 9 7 6 6 7 6 4 4 7 9 14 19 20 21 22 24 27 30 30 27 22 16 13 12 13 15 15 12 9 6 5 3 3 2 1 0 0 0
14 13 14 13 11 8 7 8 8 5 3 2 3 6 6 9 12 16 20 23 22 23 26 29 31 30 24 17 11 10 13 15 14 13 9 7 6 5 4 2 1 0 0
13 13 14 12 9 6 5 6 6 4 2 0 2 3 4 5 7 11 15 19 21 22 21 22 27 32 32 26 17 12 11 11 13 14 12 10 8 6 5 3 2 1 0
13 14 15 12 9 5 3 3 4 4 3 1 1 3 5 6 7 8 9 12 17 20 20 17 20 29 34 32 26 18 12 8 9 12 12 12 9 6 4 3 3 2 1
15 16 16 14 10 6 3 2 3 4 4 3 2 3 5 7 7 6 6 8 11 16 19 19 20 26 32 33 30 23 14 8 6 7 9 9 8 5 3 2 2 2 1
18 16 15 15 14 9 5 4 4 5 5 6 6 5 5 5 5 5 5 5 6 10 16 20 24 27 30 31 29 22 14 7 4 4 5 5 5 3 2 2 2 2 1
19 18 17 18 18 14 9 9 10 9 9 11 11 9 7 5 4 4 4 4 3 5 10 16 23 28 30 30 27 19 12 7 2 1 2 3 3 2 1 1 1 1 1
19 22 23 22 21 16 12 13 14 14 15 16 15 13 12 9 6 4 4 4 3 3 5 9 16 23 28 29 24 17 12 7 2 0 1 2 2 1 0 0 0 0 1
21 25 27 27 24 19 16 17 18 19 20 20 19 18 17 14 11 9 8 9 8 7 7 9 12 16 21 23 20 17 14 10 4 1 1 1 1 0 0 0 0 0 0
25 28 30 29 27 24 23 22 21 21 22 23 22 22 21 19 18 17 16 16 16 16 14 12 11 12 14 16 16 17 18 14 8 4 2 0 0 0 0 0 0 0 0
29 29 30 29 28 28 28 26 23 21 22 23 23 24 23 21 22 22 20 20 21 23 20 15 12 12 12 13 16 18 19 17 13 7 2 0 0 0 0 0 0 0 0
35 33 31 31 29 30 31 31 27 21 19 21 22 22 22 22 24 25 22 20 22 24 22 18 15 15 15 15 17 20 19 18 14 7 2 0 0 0 0 0 0 0 0
41 38 36 35 33 31 33 34 32 26 22 22 22 22 23 24 26 27 24 23 23 23 22 20 18 18 18 17 18 20 19 17 12 7 2 1 0 0 0 0 0 0 0
44 41 40 39 36 33 32 33 34 31 28 27 26 27 27 25 25 25 24 25 26 26 24 21 19 19 20 20 20 19 16 14 12 7 4 3 1 1 1 0 0 0 0
44 41 39 39 38 34 28 28 30 30 31 32 32 32 28 24 21 20 20 22 24 25 23 20 18 18 19 19 18 16 13 13 11 9 7 5 4 3 3 1 0 0 0
43 41 38 38 37 31 23 19 20 25 30 34 36 34 26 19 17 15 14 13 13 16 17 17 16 16 15 15 15 14 13 13 12 11 9 6 5 5 4 2 0 0 0
40 39 39 38 35 28 19 11 11 18 26 32 38 38 29 19 15 15 14 10 9 9 10 11 13 13 13 13 13 14 13 12 11 10 9 8 7 6 3 1 0 0 0
36 36 37 38 36 28 18 8 7 14 22 29 35 37 33 24 18 16 16 15 15 13 8 6 10 13 13 13 13 13 12 10 9 9 10 11 11 7 3 1 0 0 0
33 32 34 37 37 31 19 7 6 15 24 29 31 31 29 24 17 14 15 19 20 17 11 7 7 10 10 9 9 9 10 9 7 8 11 13 12 10 7 3 1 0 0
31 31 33 36 37 33 21 8 7 18 27 30 29 26 23 18 14 11 14 20 21 18 13 9 6 6 7 6 6 7 8 8 6 7 9 12 11 10 9 5 2 1 1
Wind_Speed
2 2 2 2 2 2 2 2 2 1 1 1 1 2 2 2 4 4 4 10 11 11 11 11 11 11 10 10 11 11 10 10 10 10 10 10 10 9 9 9 9 8 8
3 2 2 1 1 1 2 2 2 2 1 1 1 1 1 1 3 3 4 7 10 10 10 10 10 11 11 11 11 11 11 11 10 10 10 10 10 10 9 9 8 8 8
3 1 1 1 1 0 1 1 1 1 2 2 2 1 1 1 1 3 4 4 5 8 9 9 9 10 11 11 11 11 11 11 11 11 10 11 11 10 10 10 9 9 8
2 1 1 1 1 1 1 1 1 1 1 1 1 1 1 1 2 3 3 4 4 4 8 10 10 10 10 11 12 12 11 11 11 11 11 11 11 10 10 10 10 9 9
2 1 1 1 1 1 1 1 1 1 1 1 2 2 2 2 2 2 3 3 4 4 4 7 10 10 11 11 12 12 12 11 11 11 11 12 11 11 11 11 11 10 10
2 1 1 1 1 1 1 1 1 1 2 2 2 2 2 2 2 2 3 2 3 4 4 5 6 7 10 10 11 12 12 12 11 12 12 12 12 12 11 11 11 11 11
2 1 1 1 1 1 1 1 1 2 2 2 1 1 1 2 3 2 2 2 2 2 3 3 4 4 5 10 10 11 12 12 12 12 12 12 13 12 12 11 11 12 11
2 2 1 1 1 1 1 1 1 1 2 2 1 1 1 1 1 3 2 2 2 1 2 3 3 3 3 4 7 11 12 12 12 12 12 11 12 12 12 12 12 12 12
1 1 1 1 1 1 1 2 1 1 1 1 1 1 1 1 1 1 2 2 2 1 1 2 3 3 4 3 5 9 11 11 12 12 11 11 10 10 10 11 11 11 12
2 2 2 1 1 0 1 2 1 1 1 1 1 1 1 1 1 1 1 1 1 1 1 2 2 3 3 2 3 6 10 10 10 11 10 10 10 10 10 10 11 11 11
2 2 3 2 1 0 0 0 1 1 1 1 1 1 1 1 2 2 1 1 1 1 2 2 1 1 2 2 3 5 8 9 9 9 10 9 9 10 10 10 11 11 11
2 2 2 2 1 1 0 0 0 1 1 1 2 1 1 1 1 1 1 1 1 1 1 1 1 1 2 2 3 5 7 8 8 8 8 7 7 8 8 8 9 10 10
2 2 2 2 1 1 1 1 1 1 1 1 2 2 1 2 1 1 1 1 1 1 1 1 1 1 1 2 2 5 6 7 7 7 7 6 6 6 6 6 6 6 7
2 3 3 2 2 1 1 1 1 2 1 1 2 2 2 2 1 1 1 1 1 1 0 1 0 1 1 2 3 4 4 6 6 6 6 6 5 5 5 4 5 4 4
1 2 3 3 2 2 1 1 1 1 1 1 2 1 2 2 1 2 1 1 1 1 1 1 1 2 2 2 4 3 3 6 7 6 6 5 5 5 5 5 5 4 4
0 1 1 2 2 2 1 1 1 1 1 1 1 1 2 2 1 1 1 1 1 1 1 0 1 1 2 2 4 3 4 6 6 7 6 6 5 5 5 5 5 5 5
1 1 1 1 1 1 1 1 2 1 1 1 2 1 2 2 2 2 1 1 1 1 1 0 1 1 2 2 2 2 3 3 4 6 6 6 5 5 5 5 6 6 5
2 2 1 1 2 1 1 1 2 2 1 2 2 1 2 2 1 1 1 1 0 0 1 1 0 0 0 1 1 2 2 3 3 5 7 6 5 5 5 5 5 5 5
3 2 2 2 2 1 1 2 2 2 2 1 1 1 1 1 1 1 1 1 0 0 1 1 1 0 0 1 1 1 2 2 3 4 6 5 5 5 5 5 5 5 5
3 2 2 2 2 2 1 2 2 2 2 1 1 1 1 0 1 1 1 1 1 1 1 1 1 1 1 1 1 1 1 1 2 2 3 4 5 5 5 5 5 5 5
3 2 2 2 2 2 2 2 3 3 2 1 1 1 1 1 1 1 1 1 1 1 1 1 1 1 1 1 1 1 2 1 1 2 2 2 3 2 3 4 5 6 6
2 2 2 2 2 2 1 0 1 2 2 2 2 2 2 1 1 0 0 0 1 2 1 1 2 2 2 1 1 2 2 2 1 1 2 2 2 2 2 3 6 8 8
3 2 2 2 2 1 1 1 2 2 2 2 2 2 2 1 2 1 1 1 1 1 3 3 2 3 3 3 3 2 2 2 2 2 2 2 2 2 2 3 7 9 9
2 2 2 3 3 2 2 2 2 3 3 2 2 2 1 1 1 1 2 2 2 2 3 3 3 3 3 3 3 4 3 2 2 2 3 2 2 2 2 2 6 9 9
3 3 3 3 3 2 3 3 3 3 3 3 2 2 2 2 2 2 2 2 2 1 1 2 2 2 2 3 3 2 3 3 2 2 3 2 2 2 1 2 4 8 9
3 3 3 4 4 3 3 3 3 3 3 3 3 2 2 2 1 1 2 3 3 2 1 1 1 2 3 4 5 4 4 4 3 2 3 3 2 2 1 2 3 4 5
Wind_Direction
107 106 117 125 137 142 156 148 152 147 161 198 202 201 207 163 145 149 150 165 169 177 182 189 195 198 197 196 196 196 196 195 195 196 198 199 197 194 195 198 198 196 196
98 102 115 109 117 135 128 145 156 159 176 190 224 264 261 169 146 144 146 167 177 183 188 194 199 200 200 201 201 200 202 202 202 202 203 203 203 201 202 202 201 199 200
95 105 128 149 131 125 134 147 146 162 180 176 174 206 214 184 148 139 155 166 177 187 192 195 199 203 204 206 207 207 207 205 205 206 208 208 208 206 205 206 205 203 201
118 136 117 112 150 177 164 154 167 160 176 174 179 206 176 163 173 167 171 175 181 187 196 202 206 208 211 212 211 209 208 206 206 208 211 212 212 209 208 208 208 205 205
117 126 138 156 197 179 162 172 129 165 189 196 198 198 189 175 185 188 179 180 185 178 179 196 205 211 215 216 214 213 212 209 209 211 216 217 215 212 210 210 208 207 209
135 155 167 175 202 160 147 125 142 187 207 215 217 194 187 175 172 180 199 190 187 184 187 189 194 211 215 217 216 217 216 214 212 215 218 219 219 216 212 211 210 210 212
163 173 172 164 176 170 155 145 163 213 216 195 193 210 217 191 174 180 205 203 192 194 181 175 181 194 203 215 218 217 216 216 214 215 216 218 220 218 213 212 212 211 211
177 173 171 184 146 166 156 164 188 224 226 190 189 165 189 228 221 194 184 191 183 185 178 179 181 194 203 193 208 214 217 216 213 213 215 216 216 214 214 214 216 214 215
172 121 151 159 187 192 165 193 209 221 240 227 179 183 193 203 202 172 188 180 169 172 186 186 177 194 211 199 195 207 212 215 213 213 212 211 211 211 213 214 217 217 216
177 159 152 159 207 252 138 219 180 243 227 252 224 234 221 167 183 190 220 185 174 199 222 233 212 196 197 187 184 186 197 206 208 209 208 210 213 214 214 215 217 218 216
194 165 153 164 190 224 175 293 44 301 291 295 293 285 287 234 223 193 224 217 201 213 207 211 213 195 184 176 172 174 178 187 193 198 203 207 213 216 215 216 220 221 220
178 169 156 165 164 169 177 181 279 278 312 329 321 306 293 283 271 211 228 242 233 221 205 192 194 185 170 163 174 161 160 172 181 187 192 198 204 212 213 216 220 221 220
161 166 159 149 146 174 191 193 229 263 278 291 292 293 294 296 304 283 235 260 298 295 248 221 176 142 141 123 130 140 148 159 170 176 180 185 190 194 195 199 206 210 212
153 153 160 165 164 195 205 190 230 237 239 265 284 301 301 303 317 290 228 217 272 300 332 318 75 92 93 98 101 130 139 151 161 165 169 172 176 180 178 181 187 192 196
177 149 162 171 175 188 208 208 220 262 264 247 269 270 275 299 297 305 300 238 216 250 296 322 13 50 73 94 116 131 126 136 140 140 146 152 155 157 160 160 157 152 158
141 136 157 158 169 177 182 223 243 239 240 265 266 299 303 305 309 301 294 294 239 204 242 336 19 29 41 81 108 126 120 123 131 136 139 140 145 152 156 158 154 148 148
178 162 153 163 177 173 193 218 241 245 236 266 285 274 273 281 297 309 318 298 253 138 163 13 43 51 61 79 102 134 136 132 131 137 139 140 141 146 153 154 154 153 154
180 163 170 181 193 195 203 220 244 247 234 235 252 261 260 263 266 291 314 302 288 215 157 153 21 33 36 149 152 160 155 148 136 135 142 143 144 142 139 140 146 154 159
180 177 177 188 206 214 222 225 236 242 251 247 250 243 267 283 283 287 276 287 256 153 108 135 212 213 175 188 150 155 136 128 138 137 142 149 147 148 144 142 139 145 158
178 185 189 203 203 203 229 248 245 237 240 252 247 229 247 312 296 283 270 269 202 149 140 154 180 199 187 195 164 145 125 131 148 160 133 138 141 150 154 153 154 156 158
183 182 185 202 213 205 232 239 239 227 222 235 247 229 135 100 47 328 290 268 227 201 176 171 192 213 200 181 189 180 164 146 150 164 153 152 149 157 167 174 179 176 170
183 188 191 206 224 232 227 265 244 249 221 214 234 240 197 174 148 132 353 209 217 214 204 202 216 216 218 206 201 195 174 173 214 185 155 178 169 172 178 179 179 178 178
187 194 201 200 204 229 248 257 244 248 241 221 227 245 255 229 188 198 179 170 197 242 224 223 223 231 225 212 199 204 204 207 211 184 162 193 177 188 201 189 175 179 180
192 202 213 211 204 211 221 235 241 238 244 230 225 226 244 268 294 259 212 191 196 218 226 215 218 229 225 212 201 198 192 196 221 208 181 198 190 197 201 181 180 182 187
206 211 216 213 213 213 219 227 230 239 234 233 221 212 220 224 277 269 218 219 215 204 208 191 186 197 206 211 196 183 193 194 221 224 201 191 187 185 190 194 189 188 187
220 221 217 213 215 215 214 224 218 231 233 223 205 199 185 198 227 239 216 229 234 231 216 201 200 204 208 210 210 206 202 207 212 220 210 191 195 181 208 209 186 181 186